Content
SEND FEEDBACK

Daily
Averages
Monthly
Summary
France

AVIGNON, FRANCE


Home > Europe > France
Elevation: 187 feet     Latitude: 44 00N     Longitude: 004 45E

WEATHER
 
SELECT A DAY
Number of Records: 174,794;   Date Range: 5/17/04 - 12/17/14
 
SHARE

PRINT THIS DATA

[ ← Previous Day ]
WEATHER ALMANAC - JULY 28, 2013
[ Next Day → ]
[ °C ]   °F
Weather ElementAverageHighLow
Temperature83.7 °F93.2 °F (11:30 am)73.4 °F (1:30 am)
Dewpoint63.5 °F71.6 °F (9:30 pm)53.6 °F (3:00 am)
Humidity51.5 %78 % (10:00 pm)36 % (11:00 am)
Barometer29.87 in29.95 in (10:30 pm)29.83 in (5:00 am)
Wind Speed11.3 mph21.9 mph (2:30 pm)
Wind Gust32.2 mph (1:30 pm)
Weather ElementAverage
Visibility6.2 mi
Wind DirectionSSE (170.4 °)

Weather ElementTotal
Precipitation---
Cooling Degree Days18.3 (Base 65)
Growing Degree Days33.3 (Base 50)
Averaged from 47 records on July 28, 2013
WEATHER CONDITIONS BREAKOUT
WIND DIRECTION BREAKOUT
WEATHER BY HOUR - JULY 28, 2013
[ °C ]   °F
Local TimeTemperatureDewpointHumidityBarometerVisibilityWind DirectionWind SpeedGust SpeedPrecipitationEventsConditions
12:30 AM77.0 °F55.4 °F47 %29.86 in6.2 miSSE (150°)6.9 mph
1:00 AM75.2 °F55.4 °F50 %29.89 in6.2 miSouth (170°)5.8 mph
1:30 AM73.4 °F55.4 °F53 %29.89 in6.2 miSSE (160°)5.8 mph
2:00 AM77.0 °F57.2 °F50 %29.89 in6.2 miSSE (150°)6.9 mph
2:30 AM78.8 °F55.4 °F44 %29.86 in6.2 miSE (130°)8.1 mph
3:00 AM80.6 °F53.6 °F39 %29.86 in6.2 miSSE (150°)6.9 mph
3:30 AM77.0 °F55.4 °F47 %29.86 in6.2 miSSE (160°)6.9 mph
4:00 AM75.2 °F57.2 °F53 %29.86 in6.2 miSSE (160°)6.9 mph
4:30 AM77.0 °F57.2 °F50 %29.86 in6.2 miSE (140°)8.1 mph
5:00 AM78.8 °F57.2 °F47 %29.83 in6.2 miSE (140°)9.2 mph
5:30 AM78.8 °F57.2 °F47 %29.86 in6.2 miSSE (160°)6.9 mph
6:00 AM75.2 °F59.0 °F57 %29.83 in6.2 miSSE (160°)6.9 mph
6:30 AM75.2 °F59.0 °F57 %29.83 in6.2 miSSE (160°)5.8 mph
7:00 AM77.0 °F59.0 °F54 %29.83 in6.2 miSSE (160°)6.9 mph
7:30 AM80.6 °F59.0 °F48 %29.86 in6.2 miSSE (160°)8.1 mph
8:00 AM82.4 °F59.0 °F45 %29.83 in6.2 miSSE (150°)9.2 mph
8:30 AM84.2 °F59.0 °F42 %29.83 in6.2 miSE (130°)12.7 mph
9:00 AM86.0 °F59.0 °F40 %29.86 in6.2 miSE (140°)13.8 mph
9:30 AM86.0 °F60.8 °F43 %29.86 in6.2 miSSE (160°)10.4 mph
10:00 AM87.8 °F60.8 °F40 %29.86 in6.2 miSSE (150°)12.7 mph
10:30 AM89.6 °F60.8 °F38 %29.86 in6.2 miSE (140°)10.4 mph
11:00 AM91.4 °F60.8 °F36 %29.86 in6.2 miSE (130°)12.7 mph
11:30 AM93.2 °F64.4 °F38 %29.86 in6.2 miSouth (180°)13.8 mphScattered Clouds
12:00 PM91.4 °F66.2 °F43 %29.89 in6.2 miSSW (200°)16.1 mph
12:30 PM91.4 °F66.2 °F43 %29.89 in6.2 miSouth (190°)17.3 mph
1:00 PM89.6 °F68.0 °F49 %29.89 in6.2 miSouth (190°)18.4 mph
1:30 PM91.4 °F68.0 °F46 %29.89 in6.2 miSSW (200°)20.7 mph32.2 mph
2:00 PM91.4 °F68.0 °F46 %29.86 in6.2 miSouth (190°)19.6 mph
2:30 PM89.6 °F68.0 °F49 %29.86 in6.2 miSouth (180°)21.9 mph
3:00 PM89.6 °F68.0 °F49 %29.89 in6.2 miSouth (180°)19.6 mphPartly Cloudy
3:30 PM89.6 °F68.0 °F49 %29.86 in6.2 miSouth (170°)13.8 mphMostly Cloudy
4:00 PM89.6 °F68.0 °F49 %29.86 in6.2 miSouth (180°)17.3 mph
4:30 PM89.6 °F69.8 °F52 %29.86 in6.2 miSSW (200°)16.1 mph
5:00 PM89.6 °F68.0 °F49 %29.86 in6.2 miSSW (200°)11.5 mph
5:30 PM89.6 °F66.2 °F46 %29.86 in6.2 miSSW (200°)12.7 mph
6:00 PM89.6 °F66.2 °F46 %29.86 in6.2 miSouth (190°)8.1 mph
6:30 PM87.8 °F66.2 °F49 %29.86 in6.2 miSSW (200°)8.1 mph
7:00 PM86.0 °F68.0 °F55 %29.86 in6.2 miSouth (190°)12.7 mph
7:30 PM86.0 °F68.0 °F55 %29.86 in6.2 miSSW (200°)13.8 mph
8:00 PM84.2 °F69.8 °F62 %29.86 in6.2 miSSW (200°)11.5 mph
8:30 PM82.4 °F69.8 °F66 %29.86 in6.2 miSouth (190°)12.7 mph
9:00 PM82.4 °F69.8 °F66 %29.86 in6.2 miSouth (190°)16.1 mph
9:30 PM80.6 °F71.6 °F74 %29.89 in6.2 miSouth (190°)10.4 mph
10:00 PM78.8 °F71.6 °F78 %29.92 in6.2 miSouth (180°)5.8 mph
10:30 PM78.8 °F71.6 °F78 %29.95 in6.2 miSouth (170°)5.8 mphMostly Cloudy
11:00 PM78.8 °F71.6 °F78 %29.95 in6.2 miSouth (180°)9.2 mphOvercast
11:30 PM78.8 °F71.6 °F78 %29.95 in6.2 miSSE (160°)9.2 mphMostly Cloudy
Hourly data recorded from LFMV, located miles away from Avignon, France







STORIES FROM OUR PARTNERS